Regional Weather Roundup
Issued by NWS

Home | Current Version | Previous Version | Text Only | Print | Product List | Glossary Off
Versions: 1 2 3 4 5 6 7 8 9 10 11 12 13 14 15 16 17 18 19 20 21 22 23 24 25 26 27 28 29 30 31 32 33 34 35 36 37 38 39 40 41 42 43 44 45 46 47 48 49 50

000
ASUS44 KMEG 251110
RWRTN
TENNESSEE HOURLY STATE WEATHER ROUNDUP
NATIONAL WEATHER SERVICE MEMPHIS TN
600 AM CDT MON JUL 25 2016

TNZ002-004-019-021-049-052-054-088>092-251200-
WEST TENNESSEE

CITY           SKY/WX    TMP DP  RH WIND       PRES   REMARKS
MEMPHIS INTL   PTCLDY    79  75  87 S6        30.00R
NWS MEMPHIS      N/A     76 N/A N/A MISG        N/A
JACKSON        CLEAR     74  74 100 CALM      30.02R
DYERSBURG      CLEAR     75  73  94 MISG      30.00R
UNION CITY     CLEAR     75  75 100 CALM      29.99R
PARIS          CLEAR     73  72  94 CALM      30.02R
LEXINGTON      CLEAR     72  72 100 SE3       30.02S
$$

TNZ008-025-027-028-033-062-065-066-251200-
NORTH MIDDLE TENNESSEE

CITY           SKY/WX    TMP DP  RH WIND       PRES   REMARKS
NASHVILLE      MOCLDY    76  73  91 S5        30.04R
CLARKSVILLE    CLEAR     75  72  90 CALM      30.03R
SMYRNA         CLEAR     76  73  90 CALM      30.05S
COOKEVILLE     PTCLDY    73  73 100 S3        30.07R
CROSSVILLE     PTCLDY    70  69  97 CALM      30.13R
$$

TNZ061-075-076-078-094-096-097-251200-
SOUTH MIDDLE TENNESSEE

CITY           SKY/WX    TMP DP  RH WIND       PRES   REMARKS
FAYETTEVILLE   CLEAR     73  72  94 CALM      30.08R
TULLAHOMA      CLEAR     72  70  94 CALM      30.09R
WINCHESTER     CLEAR     72  72 100 CALM      30.08R
MCMINNVILLE    CLEAR     73  73 100 CALM      30.08R
COLUMBIA       CLEAR    N/A N/A N/A CALM      30.04R
SHELBYVILLE    CLEAR     75  75 100 SE5       30.06S
$$

TNZ017-018-042-046-047-251200-
NORTHEAST TENNESSEE

CITY           SKY/WX    TMP DP  RH WIND       PRES   REMARKS
TRI CITIES     PTCLDY    71  69  93 CALM      30.11R FOG
ELIZABETHTON   CLEAR     70  68  94 NE3       30.11S
$$

TNZ012-013-036-069-073-074-251200-
CENTRAL EAST TENNESSEE

CITY           SKY/WX    TMP DP  RH WIND       PRES   REMARKS
KNOXVILLE      PTCLDY    77  72  84 SW5       30.06R
OAK RIDGE      CLOUDY    77  72  84 CALM      30.08R
GATLINBURG     CLEAR     70  66  88 CALM      30.07R
MORRISTOWN     PTCLDY    73  72  94 SE3       30.08S
$$

TNZ083-085-099-251200-
SOUTHEAST TENNESSEE

CITY           SKY/WX    TMP DP  RH WIND       PRES   REMARKS
CHATTANOOGA    PTCLDY    75  72  90 CALM      30.07R
$$

SKY/WX REPORTED AS FAIR MEANS FEW OR NO CLOUDS BELOW
12 THOUSAND FEET.





USA.gov is the U.S. government's official web portal to all federal, state and local government web resources and services.